TimeCDT,TemperatureF,Dew PointF,Humidity,Sea Level PressureIn,VisibilityMPH,Wind Direction,Wind SpeedMPH,Gust SpeedMPH,PrecipitationIn,Events,Conditions,WindDirDegrees,DateUTC
12:15 AM,60.8,48.2,63,29.82,10.0,SSE,5.8,-,N/A,,Clear,160,2013-04-14 05:15:00
12:35 AM,60.8,48.2,63,29.82,10.0,South,8.1,-,N/A,,Clear,170,2013-04-14 05:35:00
12:55 AM,62.6,48.2,59,29.82,10.0,South,11.5,16.1,N/A,,Mostly Cloudy,170,2013-04-14 05:55:00
1:15 AM,62.6,48.2,59,29.82,10.0,South,10.4,16.1,N/A,,Mostly Cloudy,170,2013-04-14 06:15:00
1:35 AM,62.6,50.0,63,29.81,10.0,South,11.5,20.7,N/A,,Mostly Cloudy,170,2013-04-14 06:35:00
1:55 AM,62.6,50.0,63,29.80,10.0,South,12.7,17.3,N/A,,Mostly Cloudy,170,2013-04-14 06:55:00
2:15 AM,62.6,48.2,59,29.78,10.0,SSE,10.4,16.1,N/A,,Mostly Cloudy,160,2013-04-14 07:15:00
2:35 AM,60.8,50.0,68,29.77,10.0,South,9.2,16.1,N/A,,Scattered Clouds,170,2013-04-14 07:35:00
2:55 AM,60.8,50.0,68,29.76,10.0,SSE,10.4,-,N/A,,Clear,160,2013-04-14 07:55:00
3:15 AM,60.8,50.0,68,29.75,10.0,SSE,9.2,-,N/A,,Clear,160,2013-04-14 08:15:00
3:35 AM,59.0,50.0,72,29.75,10.0,South,6.9,-,N/A,,Clear,170,2013-04-14 08:35:00
3:55 AM,59.0,50.0,72,29.75,10.0,South,4.6,-,N/A,,Clear,180,2013-04-14 08:55:00
4:15 AM,57.2,50.0,77,29.74,10.0,South,4.6,-,N/A,,Clear,170,2013-04-14 09:15:00
4:35 AM,55.4,50.0,82,29.73,10.0,SSE,5.8,-,N/A,,Clear,160,2013-04-14 09:35:00
4:55 AM,55.4,50.0,82,29.73,10.0,South,4.6,-,N/A,,Clear,180,2013-04-14 09:55:00
5:15 AM,55.4,50.0,82,29.73,10.0,South,3.5,-,N/A,,Clear,180,2013-04-14 10:15:00
5:35 AM,53.6,50.0,88,29.72,10.0,South,3.5,-,N/A,,Clear,180,2013-04-14 10:35:00
5:55 AM,53.6,50.0,88,29.72,10.0,South,4.6,-,N/A,,Clear,180,2013-04-14 10:55:00
6:15 AM,53.6,50.0,88,29.71,10.0,South,4.6,-,N/A,,Clear,180,2013-04-14 11:15:00
6:35 AM,53.6,50.0,88,29.71,10.0,South,4.6,-,N/A,,Clear,180,2013-04-14 11:35:00
6:55 AM,51.8,48.2,88,29.71,10.0,South,5.8,-,N/A,,Clear,180,2013-04-14 11:55:00
7:15 AM,51.8,48.2,88,29.71,10.0,South,5.8,-,N/A,,Clear,170,2013-04-14 12:15:00
7:35 AM,53.6,50.0,88,29.72,10.0,South,5.8,-,N/A,,Clear,170,2013-04-14 12:35:00
7:55 AM,53.6,50.0,88,29.72,10.0,South,8.1,-,N/A,,Clear,170,2013-04-14 12:55:00
8:15 AM,55.4,51.8,88,29.73,10.0,South,6.9,-,N/A,,Clear,180,2013-04-14 13:15:00
8:35 AM,55.4,51.8,88,29.73,10.0,South,11.5,-,N/A,,Clear,180,2013-04-14 13:35:00
8:55 AM,57.2,53.6,88,29.73,10.0,South,10.4,17.3,N/A,,Mostly Cloudy,190,2013-04-14 13:55:00
9:15 AM,59.0,53.6,82,29.72,10.0,South,13.8,23.0,N/A,,Overcast,190,2013-04-14 14:15:00
9:35 AM,60.8,53.6,77,29.70,10.0,South,17.3,-,N/A,,Scattered Clouds,190,2013-04-14 14:35:00
9:55 AM,64.4,55.4,73,29.71,10.0,South,16.1,24.2,N/A,,Scattered Clouds,190,2013-04-14 14:55:00
10:15 AM,64.4,55.4,73,29.70,10.0,South,16.1,23.0,N/A,,Scattered Clouds,190,2013-04-14 15:15:00
10:35 AM,68.0,55.4,64,29.70,10.0,South,15.0,19.6,N/A,,Clear,180,2013-04-14 15:35:00
10:55 AM,69.8,55.4,60,29.70,10.0,South,15.0,23.0,N/A,,Clear,190,2013-04-14 15:55:00
11:15 AM,71.6,55.4,57,29.70,10.0,SSW,13.8,19.6,N/A,,Clear,200,2013-04-14 16:15:00
11:35 AM,71.6,55.4,57,29.70,10.0,South,15.0,21.9,N/A,,Clear,190,2013-04-14 16:35:00
11:55 AM,73.4,55.4,53,29.69,10.0,SSW,13.8,20.7,N/A,,Clear,210,2013-04-14 16:55:00
12:15 PM,73.4,55.4,53,29.69,10.0,SSW,13.8,17.3,N/A,,Clear,210,2013-04-14 17:15:00
12:35 PM,77.0,55.4,47,29.68,10.0,SSW,11.5,-,N/A,,Clear,200,2013-04-14 17:35:00
12:55 PM,77.0,57.2,50,29.67,10.0,SSW,11.5,-,N/A,,Clear,200,2013-04-14 17:55:00
1:15 PM,78.8,55.4,44,29.66,10.0,SSW,10.4,16.1,N/A,,Clear,200,2013-04-14 18:15:00
1:35 PM,80.6,53.6,39,29.65,10.0,SSW,15.0,-,N/A,,Clear,200,2013-04-14 18:35:00
1:55 PM,82.4,53.6,37,29.64,10.0,SW,13.8,20.7,N/A,,Clear,220,2013-04-14 18:55:00
2:15 PM,84.2,51.8,33,29.63,10.0,SW,15.0,19.6,N/A,,Clear,220,2013-04-14 19:15:00
2:35 PM,86.0,50.0,29,29.62,10.0,SSW,13.8,19.6,N/A,,Clear,210,2013-04-14 19:35:00
2:55 PM,86.0,50.0,29,29.61,10.0,SW,11.5,20.7,N/A,,Clear,220,2013-04-14 19:55:00
3:15 PM,87.8,46.4,24,29.60,10.0,SW,15.0,23.0,N/A,,Clear,220,2013-04-14 20:15:00
3:35 PM,87.8,44.6,22,29.59,10.0,SW,12.7,19.6,N/A,,Clear,220,2013-04-14 20:35:00
3:55 PM,87.8,44.6,22,29.58,10.0,WSW,9.2,20.7,N/A,,Clear,240,2013-04-14 20:55:00
4:15 PM,89.6,33.8,14,29.58,10.0,West,20.7,28.8,N/A,,Clear,260,2013-04-14 21:15:00
4:35 PM,89.6,35.6,15,29.58,10.0,WSW,11.5,21.9,N/A,,Clear,240,2013-04-14 21:35:00
4:55 PM,89.6,35.6,15,29.57,10.0,SW,13.8,19.6,N/A,,Clear,230,2013-04-14 21:55:00
5:15 PM,89.6,35.6,15,29.57,10.0,WSW,9.2,-,N/A,,Clear,240,2013-04-14 22:15:00
5:35 PM,89.6,33.8,14,29.56,10.0,SW,10.4,-,N/A,,Clear,220,2013-04-14 22:35:00
5:55 PM,89.6,32.0,13,29.56,10.0,SSW,9.2,-,N/A,,Clear,210,2013-04-14 22:55:00
6:15 PM,89.6,33.8,14,29.56,10.0,SSW,9.2,-,N/A,,Clear,210,2013-04-14 23:15:00
6:35 PM,89.6,35.6,15,29.56,10.0,SSW,4.6,-,N/A,,Clear,210,2013-04-14 23:35:00
6:55 PM,89.6,35.6,15,29.56,10.0,Calm,Calm,-,N/A,,Clear,0,2013-04-14 23:55:00
7:15 PM,87.8,37.4,17,29.56,10.0,Calm,Calm,-,N/A,,Clear,0,2013-04-15 00:15:00
7:35 PM,86.0,39.2,19,29.57,10.0,Calm,Calm,-,N/A,,Clear,0,2013-04-15 00:35:00
7:55 PM,84.2,35.6,18,29.57,10.0,SW,3.5,-,N/A,,Clear,220,2013-04-15 00:55:00
8:15 PM,82.4,35.6,19,29.57,10.0,Calm,Calm,-,N/A,,Clear,0,2013-04-15 01:15:00
8:35 PM,77.0,42.8,29,29.58,10.0,Calm,Calm,-,N/A,,Clear,0,2013-04-15 01:35:00
8:55 PM,73.4,42.8,33,29.58,10.0,ESE,6.9,-,N/A,,Clear,110,2013-04-15 01:55:00
9:15 PM,73.4,53.6,50,29.59,10.0,SE,5.8,-,N/A,,Clear,130,2013-04-15 02:15:00
9:35 PM,73.4,57.2,57,29.60,10.0,SSE,5.8,-,N/A,,Clear,150,2013-04-15 02:35:00
9:55 PM,71.6,59.0,64,29.61,10.0,SSE,6.9,-,N/A,,Clear,150,2013-04-15 02:55:00
10:15 PM,71.6,60.8,69,29.62,10.0,SSE,6.9,-,N/A,,Clear,160,2013-04-15 03:15:00
10:35 PM,71.6,60.8,69,29.63,10.0,SSE,6.9,-,N/A,,Clear,160,2013-04-15 03:35:00
10:55 PM,71.6,60.8,69,29.63,10.0,SSE,8.1,-,N/A,,Clear,160,2013-04-15 03:55:00
11:15 PM,71.6,59.0,64,29.64,10.0,South,8.1,-,N/A,,Clear,170,2013-04-15 04:15:00
11:35 PM,71.6,59.0,64,29.64,10.0,South,5.8,-,N/A,,Clear,170,2013-04-15 04:35:00
11:55 PM,69.8,59.0,68,29.64,10.0,SSE,5.8,-,N/A,,Clear,160,2013-04-15 04:55:00